This demonstration page uses our WeatherBlox Daily Observations layout. Learn more.

Left ArrowRight Arrow

Hourly Observations for December 1, 2022

Temp ( °F °C ) Dew Point ( °F °C ) Humidity (%) Winds ( mph kmh ) Pressure ( in mb ) Visibility ( mi km ) Precip ( " mm )
2:53 am 02:53 Clear 38 3.3 25 -3.9 59 59 E 9 15 30.20 1023 10 16 0.00 0.00
3:53 am 03:53 Clear 39 3.9 25 -3.9 57 57 ESE 14 22 30.19 1022 10 16 0.00 0.00
4:53 am 04:53 Clear 39 3.9 25 -3.9 57 57 ESE 12 19 30.18 1022 10 16 0.00 0.00
5:53 am 05:53 Clear 38 3.3 26 -3.3 62 62 ESE 8 13 30.19 1022 10 16 0.00 0.00
6:53 am 06:53 Clear 38 3.3 26 -3.3 62 62 ESE 8 13 30.20 1023 10 16 0.00 0.00
7:53 am 07:53 Sunny 37 2.8 26 -3.3 64 64 E 5 7 30.22 1023 10 16 0.00 0.00
8:53 am 08:53 Sunny 40 4.4 26 -3.3 57 57 ESE 10 17 30.22 1023 10 16 0.00 0.00
9:53 am 09:53 Sunny 43 6.1 27 -2.8 53 53 SE 14 22 30.22 1023 10 16 0.00 0.00
10:53 am 10:53 Sunny 46 7.8 29 -1.7 51 51 SSE 10 17 30.21 1023 10 16 0.00 0.00
11:53 am 11:53 Sunny 48 8.9 31 -0.6 51 51 SSE 10 17 30.18 1022 10 16 0.00 0.00
12:53 pm 12:53 Sunny 51 10.6 32 0 48 48 SSE 9 15 30.13 1020 10 16 0.00 0.00
1:53 pm 13:53 Sunny 54 12.2 35 1.7 49 49 S 9 15 30.08 1019 10 16 0.00 0.00
2:53 pm 14:53 Sunny 55 12.8 35 1.7 47 47 S 8 13 30.06 1018 10 16 0.00 0.00
3:53 pm 15:53 Sunny 57 13.9 37 2.8 47 47 SSE 8 13 30.03 1017 10 16 0.00 0.00
4:53 pm 16:53 Sunny 57 13.9 37 2.8 47 47 SSE 12 19 30.02 1017 10 16 0.00 0.00
5:53 pm 17:53 Clear 53 11.7 38 3.3 56 56 SE 6 9 30.02 1017 10 16 0.00 0.00
7:53 pm 19:53 Clear 46 7.8 38 3.3 73 73 SE 9 15 30.05 1018 10 16 0.00 0.00
8:53 pm 20:53 Clear 48 8.9 38 3.3 68 68 SE 9 15 30.05 1018 10 16 0.00 0.00
9:53 pm 21:53 Clear 47 8.3 38 3.3 71 71 SE 9 15 30.04 1017 10 16 0.00 0.00
10:53 pm 22:53 Clear 43 6.1 37 2.8 79 79 SSE 7 11 30.04 1017 10 16 0.00 0.00
11:53 pm 23:53 Clear 42 5.6 37 2.8 82 82 SE 6 9 30.04 1017 10 16 0.00 0.00

Powered by AerisWeather